Regional Weather Roundup
Issued by NWS Green Bay, WI

Home | Current Version | Previous Version | Text Only | Print | Product List | Glossary On
Versions: 1 2 3 4 5 6 7 8 9 10 11 12 13 14 15 16 17 18 19 20 21 22 23 24 25 26 27 28 29 30 31 32 33 34 35 36 37 38 39 40 41 42 43 44 45 46 47 48 49 50
000
ASUS43 KGRB 250710
RWRGRB

NORTH-CENTRAL AND NORTHEAST WISCONSIN REGIONAL WEATHER ROUNDUP
NATIONAL WEATHER SERVICE GREEN BAY WI
200 AM CDT SAT OCT 25 2014

WIZ005-009-010>012-018-019-250800-
NORTH CENTRAL WISCONSIN

CITY           SKY/WX    TMP DP  RH WIND       PRES   REMARKS
IRONWOOD       CLEAR     54  46  76 W13       29.76R
MANITOWISH WTR CLEAR     51  51 100 W8        29.79S FOG
ARBOR VITAE    CLEAR     53  51  93 W7        29.80R FOG
EAGLE RIVER    CLEAR     51  50  98 W9        29.78F FOG
LAND O LAKES   CLEAR     53  50  89 W7        29.78S
RHINELANDER    PTCLDY    51  50  96 W7        29.81S FOG
PHILLIPS       CLEAR     52  51  95 W5        29.82S FOG
ANTIGO         CLOUDY    53  52  95 W9        29.81S FOG
TOMAHAWK       MOCLDY    52  50  93 W5        29.82S FOG
MERRILL        MOCLDY    55  54  96 W10       29.82S FOG
$$

WIZ013-073-250800-
NORTHEAST WISCONSIN

CITY           SKY/WX    TMP DP  RH WIND       PRES   REMARKS
IRON MOUNTAIN  CLEAR     54  49  83 W10       29.74S
MARINETTE      CLOUDY    54  50  87 W7        29.76F
OCONTO         CLOUDY    55  54  97 W6        29.79S
$$

WIZ017-030-035>037-045-250800-
CENTRAL WISCONSIN

CITY           SKY/WX    TMP DP  RH WIND       PRES   REMARKS
MEDFORD        CLOUDY    53  52  97 W10G17    29.84R FOG
WAUSAU         CLOUDY    56  53  90 W7        29.82S FOG
MOSINEE        CLOUDY    54  54 100 W13       29.84S FOG
MARSHFIELD     CLOUDY    55  53  93 W10       29.84S FOG
WISC RAPIDS    CLOUDY    55  54  96 W9        29.87R FOG
STEVENS POINT  CLOUDY    54  53  95 W8        29.85S FOG
WAUPACA        CLOUDY    58  55  92 W8        29.84S
SHAWANO        MOCLDY    58  54  86 W7        29.81F
CLINTONVILLE   CLOUDY    55  54  94 W7        29.82S
$$

WIZ038-039-048-051-250800-
FOX VALLEY

CITY           SKY/WX    TMP DP  RH WIND       PRES   REMARKS
NWS GREEN BAY  CLOUDY    53  51  93 SW5       29.82S
APPLETON       CLOUDY    55  54  94 W10       29.83S
OSHKOSH        CLOUDY    56  53  90 W7        29.84S
FOND DU LAC    MOCLDY    52  48  86 SW5       29.86R
$$

WIZ022-050-052-250800-
EAST CENTRAL WISCONSIN

CITY           SKY/WX    TMP DP  RH WIND       PRES   REMARKS
STURGEON BAY   CLOUDY    55  52  88 W10       29.80R
MANITOWOC      CLOUDY    54  52  93 W8        29.82F
SHEBOYGAN      PTCLDY    49  47  93 SW7       29.83F
$$

LMZ563-521-522-541>543-250800-
LAKESHORE

STATION/POSITION TIME  TEMP    WIND        PRES    VSBY  WAVE
                       AIR SEA DIR/SP/G                  HT/PER
                 (UTC) (F)     (DEG/KT/KT) (MB)    (MI)  (FT/S)
SHEBOYGAN LKSHOR 0700   54 51  210/  6/  6 1010.5F
KEWAUNEE LKSHORE 0700   53     250/  6/  8 1008.3R
NORTHPORT PIER   0700   55     250/  6/ 16 1007.8F
N MID LAKE BUOY  0700   52 51  210/ 17/ 21 1007.8F         5/ 6
SISTER BAY LKSHO 0600          220/ 14/ 18   N/A
CHAMBERS ISLAND  0700   54     210/  8/ 11 1008.8R
MENOMINEE LKSHOR 0700   54     240/ 10/ 13 1009.0S
$$



USA.gov is the U.S. government's official web portal to all federal, state and local government web resources and services.